Location: Berg
(48.4333°N, 13.9167°E)
Time: 05:25:49
(UTC+00:00)

Cosmos 1805 - Pass Details

Date: 18 September 2020
Orbit: 524 x 531 km, 82.5° (Epoch: 29 October)

Event Time Altitude Azimuth Distance (km) Brightness Sun altitude
Exits shadow 19:01:05 33° 63° (ENE) 905 4.1 -18.6°
Drops below altitude 10° 19:03:54 10° 25° (NNE) 1,792 5.9 -19.1°
Sets 19:06:09 0° 17° (NNE) 2,688 7.0 -19.4°
